[[{"header":{"parameterUnit":"m.s-1","parameterCategory":2,"la1":30.2991,"la2":30.254,"lo1":-89.0895,"lo2":-89.0444,"dy":0.0017,"dx":0.0017,"nx":28,"ny":28,"refTime":"2025-07-06T09:00:00:Z","depth":"0","parameterNumber":2,"parameterNumberName":"U-component_of_CURRENTS"},"data":[0,0,0,0,0,0,0,0,0,0,0,0,0,0,0,0,0,0,0,0,0,0,0,0,0,0,0,0,0,0,0,0,0,0,0,0,0,0,0,0,0,0,0,0,0,0,0,0,0,0,0,0,0,0,0,0,0,0,0.1173,0.1174,0,0.1243,0.1243,0.1244,0.1277,0.1277,0.1277,0.1277,0.1261,0.1261,0.126,0,0,0,0,0,0,0,0,0,0,0,0,0,0.1034,0.1036,0.1173,0.1174,0.1175,0.1243,0.1243,0.1244,0.1276,0.1277,0.1277,0.1277,0.1262,0.1261,0.126,0,0,0,0,0,0,0,0,0,0,0,0,0,0.1095,0.1037,0.1172,0.1202,0.1206,0.1242,0.1243,0.1244,0.1276,0.1277,0.1277,0.1278,0.1262,0.1261,0.126,0.1246,0,0,0.1257,0.1256,0,0,0,0,0,0,0,0,0.1091,0.1099,0.1196,0.12,0.1204,0.1254,0.1189,0.1242,0.1276,0.1246,0.1277,0.1278,0.1253,0.1253,0.1261,0.1245,0.1244,0.1257,0.1256,0.1256,0.1256,0,0,0,0,0,0,0,0.1087,0.1096,0.1197,0.1198,0.1202,0.12,0.1209,0.1199,0.1242,0.1249,0.1252,0.1265,0.1254,0.1262,0.1261,0.1244,0.1257,0.1256,0.1255,0.1255,0.1346,0.1349,0,0,0,0,0,0,0.1087,0.1093,0.1195,0.1199,0.1151,0.1203,0.1213,0.1235,0.1244,0.1248,0.1265,0.1266,0.1264,0.1262,0.1261,0.1407,0.1256,0.1255,0.1254,0.1343,0.1347,0.135,0,0,0,0,0,0,0.1084,0.1096,0.1192,0.1149,0.1162,0.1206,0.123,0.1236,0.1251,0.1258,0.1259,0.1274,0.1264,0.1262,0.1278,0.14,0.1254,0.1254,0.134,0.1344,0.1349,0.1596,0,0,0,0,0,0,0.108,0.1094,0.1103,0.115,0.1165,0.122,0.123,0.1237,0.126,0.1263,0.1266,0.1265,0.1264,0.128,0.1277,0.1396,0.1253,0.1336,0.1342,0.1347,0.1584,0.1608,0.1629,0,0,0,0,0,0.1074,0.1086,0.1103,0.1115,0.1178,0.1221,0.1227,0.1256,0.126,0.127,0.1286,0.1265,0.1315,0.128,0.1276,0.1399,0.1333,0.134,0.1347,0.1574,0.1603,0.1628,0,0,0,0,0,0,0.1025,0.1093,0.1111,0.1142,0.1182,0.1228,0.1239,0.1257,0.1277,0.1279,0.1279,0.128,0.1361,0.1313,0.1275,0.1438,0.133,0.1336,0.1504,0.1532,0.1554,0.1646,0.1252,0,0,0,0,0,0.1021,0.1051,0.1109,0.1133,0.1154,0.1195,0.1213,0.1237,0.1266,0.1275,0.1289,0.1313,0.1385,0.1399,0.1424,0.1476,0.1499,0.1556,0.1579,0.1599,0.167,0.1797,0.184,0.1373,0.1372,0.1372,0,0,0.1006,0.1049,0.1064,0.1125,0.1157,0.1241,0.1207,0.1241,0.1342,0.1267,0.1377,0.1383,0.1413,0.1518,0.1549,0.1493,0.1736,0.1607,0.1625,0.1687,0.1809,0.1855,0.1897,0.1377,0.1376,0.1376,0,0,0.1031,0.1035,0.1092,0.1141,0.1202,0.1242,0.1257,0.1312,0.1362,0.1443,0.1466,0.1552,0.1577,0.1687,0.1736,0.1883,0.1856,0.186,0.2056,0.2178,0.222,0.2257,0.2327,0.2368,0.1869,0.1869,0.1869,0,0.1014,0.1118,0.1109,0.1199,0.1268,0.1259,0.1367,0.1424,0.1484,0.1555,0.1502,0.1684,0.1704,0.1928,0.2012,0.1955,0.1974,0.1958,0.2216,0.2253,0.2287,0.235,0.2392,0.1882,0.188,0.1879,0.1878,0,0.1119,0.1206,0.124,0.1376,0.1427,0.1502,0.1592,0.1654,0.1696,0.1767,0.194,0.1979,0.2092,0.2132,0.2138,0.2401,0.2321,0.2238,0.2163,0.2351,0.2401,0.2442,0.19,0.1895,0.1892,0.1889,0,0,0.1114,0.1286,0.1311,0.1411,0.1537,0.1592,0.176,0.1922,0.2026,0.2114,0.228,0.2478,0.2463,0.2522,0.2529,0.2672,0.294,0.2576,0.2576,0.2676,0.318,0.3101,0.3135,0.2887,0.2896,0.2903,0.3114,0,0.1227,0.1437,0.1492,0.1694,0.1821,0.1875,0.2016,0.2145,0.2228,0.2356,0.2489,0.2603,0.2619,0.2648,0.2828,0.2886,0.3059,0.2889,0.2959,0.2962,0.2896,0.3186,0.3115,0.3297,0.3153,0.3159,0.3164,0,0.1371,0.1494,0.1717,0.1894,0.1942,0.2033,0.2232,0.2349,0.253,0.2581,0.2749,0.2777,0.3045,0.2962,0.3294,0.3167,0.3245,0.3292,0.3297,0.3183,0.2962,0.3087,0.3374,0.3301,0.3225,0.322,0.3215,0,0.1459,0.1666,0.1848,0.1918,0.2099,0.2184,0.2258,0.2423,0.2505,0.2698,0.274,0.3015,0.309,0.3303,0.3427,0.3368,0.3719,0.3612,0.3638,0.3626,0.3571,0.3541,0.3834,0.3902,0.3901,0.3901,0.39,0,0.1631,0.1768,0.188,0.1991,0.2124,0.2223,0.235,0.2456,0.258,0.2672,0.2827,0.2935,0.3179,0.3365,0.3507,0.3713,0.3791,0.3784,0.3734,0.3644,0.362,0.3544,0.3502,0.3908,0.3907,0.3905,0.3904,0,0.1759,0.1851,0.202,0.2164,0.2183,0.2268,0.2331,0.2405,0.2519,0.264,0.2692,0.2915,0.3161,0.3378,0.3677,0.3765,0.3899,0.4007,0.3862,0.3797,0.3737,0.3708,0.3785,0.3714,0.4121,0.4122,0.4122,0,0.1885,0.1985,0.209,0.2109,0.2161,0.2244,0.2272,0.2372,0.2423,0.2622,0.2675,0.2923,0.3097,0.3498,0.3734,0.4008,0.3902,0.4047,0.3976,0.3842,0.3775,0.3551,0.3469,0.3984,0.3983,0.3983,0.3982,0,0.2059,0.2046,0.2135,0.2155,0.2171,0.2197,0.2238,0.2266,0.2384,0.2481,0.263,0.2782,0.3162,0.3431,0.3757,0.3914,0.3886,0.4035,0.3982,0.3829,0.353,0.3393,0.3676,0.3975,0.3976,0.3976,0.3976,0.3977,0.2115,0.214,0.2166,0.2172,0.2169,0.2138,0.2131,0.2179,0.2244,0.2373,0.2541,0.2742,0.316,0.363,0.3732,0.3904,0.3843,0.3899,0.3915,0.3727,0.3574,0.3825,0.3989,0.399,0.3991,0.3991,0.3992,0,0.2165,0.2145,0.2162,0.2131,0.2083,0.2091,0.2088,0.2069,0.211,0.2294,0.2423,0.282,0.3157,0.3475,0.3834,0.3812,0.3648,0.3763,0.3494,0.3452,0.3794,0.3701,0.3707,0.3707,0.3707,0.3707,0.3708,0.3708,0.2178,0.2165,0.2136,0.2041,0.1997,0.1906,0.1883,0.1894,0.1994,0.2168,0.2363,0.257,0.3045,0.3571,0.3736,0.3701,0.3495,0.3374,0.3345,0.3643,0.3656,0.3667,0.3574,0.3553,0.3553,0.2856,0.2852,0.2849]},{"header":{"parameterUnit":"m.s-1","parameterCategory":2,"la1":30.2991,"la2":30.254,"lo1":-89.0895,"lo2":-89.0444,"dy":0.0017,"dx":0.0017,"nx":28,"ny":28,"refTime":"2025-07-06T09:00:00:Z","depth":"0","parameterNumber":3,"parameterNumberName":"V-component_of_CURRENTS"},"data":[0,0,0,0,0,0,0,0,0,0,0,0,0,0,0,0,0,0,0,0,0,0,0,0,0,0,0,0,0,0,0,0,0,0,0,0,0,0,0,0,0,0,0,0,0,0,0,0,0,0,0,0,0,0,0,0,0,0,0.0184,0.0183,0,0.0156,0.0156,0.0155,0.0161,0.0161,0.0162,0.0162,0.0146,0.0145,0.0144,0,0,0,0,0,0,0,0,0,0,0,0,0,0.0119,0.0121,0.0184,0.0183,0.0183,0.0156,0.0156,0.0155,0.0161,0.0161,0.0162,0.0162,0.0146,0.0145,0.0144,0,0,0,0,0,0,0,0,0,0,0,0,0,0.0125,0.0122,0.0184,0.0182,0.0182,0.0156,0.0156,0.0155,0.0161,0.0161,0.0162,0.0163,0.0146,0.0145,0.0144,0.0122,0,0,0.014,0.0139,0,0,0,0,0,0,0,0,0.0125,0.0128,0.0183,0.0182,0.0182,0.0162,0.0127,0.0144,0.0161,0.0169,0.0162,0.0163,0.0151,0.015,0.0144,0.0121,0.0121,0.014,0.0139,0.0138,0.0138,0,0,0,0,0,0,0,0.0125,0.0128,0.0173,0.0182,0.0181,0.014,0.0143,0.0129,0.0157,0.0169,0.0169,0.0165,0.0151,0.0145,0.0143,0.012,0.014,0.0139,0.0138,0.0137,0.0168,0.017,0,0,0,0,0,0,0.0133,0.0129,0.0174,0.0172,0.0154,0.0142,0.0145,0.0168,0.0157,0.0156,0.0164,0.0165,0.0147,0.0145,0.0143,0.0266,0.0138,0.0137,0.0137,0.0167,0.0169,0.017,0,0,0,0,0,0,0.0133,0.0139,0.0175,0.0147,0.0149,0.0143,0.0168,0.0167,0.0164,0.0154,0.0153,0.0163,0.0147,0.0145,0.0161,0.0259,0.0137,0.0135,0.0165,0.0167,0.0169,0.0416,0,0,0,0,0,0,0.0131,0.014,0.0156,0.0149,0.0151,0.0175,0.0167,0.0166,0.016,0.0161,0.0152,0.0151,0.0148,0.0164,0.016,0.0255,0.0134,0.0163,0.0166,0.0169,0.0405,0.0426,0.0444,0,0,0,0,0,0.013,0.0146,0.0157,0.0162,0.0176,0.0176,0.0173,0.0169,0.016,0.0167,0.0174,0.0152,0.018,0.0164,0.0159,0.0257,0.0161,0.0165,0.0168,0.0397,0.0422,0.0443,0,0,0,0,0,0,0.0134,0.0148,0.016,0.0184,0.0189,0.0177,0.0172,0.0168,0.0174,0.0177,0.0166,0.0166,0.0223,0.0177,0.0159,0.0265,0.0169,0.0172,0.0344,0.0367,0.0386,0.0478,0.0133,0,0,0,0,0,0.0142,0.0156,0.0167,0.0187,0.0187,0.0179,0.0175,0.0179,0.0181,0.0183,0.0194,0.0198,0.023,0.0248,0.0248,0.0295,0.0251,0.035,0.0369,0.0386,0.0453,0.0434,0.046,0.0182,0.0182,0.0182,0,0,0.0148,0.0157,0.0166,0.0187,0.0184,0.025,0.0179,0.0181,0.0276,0.0179,0.0293,0.0257,0.025,0.033,0.0351,0.0311,0.0436,0.0391,0.0407,0.0465,0.0441,0.0469,0.0493,0.0185,0.0184,0.0184,0,0,0.0181,0.0177,0.0213,0.0238,0.0248,0.0265,0.0271,0.0281,0.032,0.0392,0.0374,0.0404,0.0423,0.0478,0.0499,0.061,0.0529,0.0582,0.0779,0.076,0.0785,0.0806,0.0772,0.0788,0.0605,0.0605,0.0605,0,0.019,0.0276,0.0219,0.0286,0.035,0.0292,0.0398,0.0426,0.0457,0.0524,0.046,0.0549,0.0526,0.068,0.0735,0.067,0.0618,0.0705,0.0793,0.0812,0.083,0.0789,0.0804,0.0617,0.0616,0.0615,0.0614,0,0.0277,0.0367,0.0385,0.0488,0.0529,0.0594,0.0648,0.0709,0.0734,0.0774,0.0886,0.0845,0.0906,0.0899,0.0869,0.1001,0.0909,0.0813,0.0751,0.0874,0.0821,0.0832,0.0635,0.0631,0.0627,0.0624,0,0,0.0276,0.0428,0.0446,0.0573,0.0662,0.0717,0.0879,0.1024,0.1137,0.1155,0.1305,0.1363,0.1293,0.1311,0.1246,0.1253,0.132,0.1109,0.1102,0.1109,0.1264,0.1196,0.1199,0.1222,0.1226,0.1229,0.1174,0,0.0391,0.06,0.0638,0.0878,0.1016,0.106,0.1219,0.133,0.1383,0.149,0.1485,0.1547,0.1462,0.1457,0.1476,0.1343,0.1362,0.1344,0.1117,0.1112,0.1065,0.1216,0.1178,0.1126,0.1184,0.1185,0.1187,0,0.0512,0.0649,0.0906,0.1161,0.1213,0.1331,0.1573,0.1696,0.1817,0.184,0.1902,0.1835,0.1901,0.174,0.1686,0.1664,0.1524,0.1408,0.1399,0.1276,0.1068,0.1011,0.1142,0.0876,0.1202,0.1201,0.12,0,0.0627,0.0863,0.1095,0.118,0.1416,0.1545,0.1659,0.181,0.1912,0.2025,0.2045,0.2101,0.2061,0.1964,0.1757,0.1708,0.1629,0.1504,0.1332,0.1322,0.1224,0.1201,0.1112,0.1484,0.1485,0.1485,0.1485,0,0.0819,0.1,0.1159,0.13,0.1532,0.1654,0.1869,0.1979,0.2096,0.2194,0.2195,0.2235,0.2102,0.2022,0.1849,0.1652,0.17,0.1437,0.1338,0.1301,0.1287,0.0992,0.0861,0.1482,0.1483,0.1483,0.1484,0,0.0972,0.1083,0.1325,0.1548,0.1607,0.1766,0.1943,0.2071,0.2167,0.2279,0.2301,0.2327,0.2238,0.2093,0.1899,0.1732,0.141,0.1459,0.143,0.1333,0.0929,0.0815,0.0716,0.0572,0.1292,0.129,0.1289,0,0.1111,0.1244,0.1445,0.1524,0.1625,0.1822,0.1937,0.2092,0.2188,0.2319,0.2361,0.2338,0.2334,0.2084,0.1812,0.1562,0.1337,0.1316,0.1248,0.0977,0.0774,0.0725,0.0607,0.1191,0.1189,0.1188,0.1186,0,0.1306,0.1321,0.1465,0.161,0.1732,0.1891,0.205,0.2131,0.2286,0.2368,0.2446,0.2465,0.2272,0.2045,0.1725,0.152,0.1137,0.1272,0.1005,0.075,0.0682,0.0468,0.1132,0.1172,0.1174,0.1175,0.1175,0.1176,0.1359,0.1434,0.1529,0.167,0.1794,0.192,0.2028,0.216,0.23,0.2425,0.2475,0.2534,0.2258,0.1847,0.1508,0.0923,0.0984,0.0733,0.0633,0.0621,0.0463,0.111,0.1022,0.1022,0.1022,0.1023,0.1023,0,0.1396,0.1442,0.1574,0.1709,0.1821,0.1896,0.2067,0.2154,0.2276,0.2439,0.2524,0.2492,0.2012,0.1559,0.0831,0.0373,0.0216,0.0134,0.0039,-0.0045,0.0531,0.0501,0.028,0.0281,0.0281,0.0281,0.0281,0.0282,0.1395,0.1467,0.1523,0.1674,0.1772,0.1902,0.1984,0.2119,0.2264,0.2442,0.2561,0.2687,0.2435,0.1076,0.0069,-0.02,-0.056,-0.0563,-0.0744,-0.0397,-0.035,-0.0305,-0.0364,-0.0763,-0.0765,-0.1286,-0.1292,-0.1296]}],[{"header":{"parameterUnit":"m.s-1","parameterCategory":2,"la1":30.2991,"la2":30.254,"lo1":-89.0895,"lo2":-89.0444,"dy":0.0017,"dx":0.0017,"nx":28,"ny":28,"refTime":"2025-07-06T09:00:00:Z","depth":"2","parameterNumber":2,"parameterNumberName":"U-component_of_CURRENTS"},"data":[0,0,0,0,0,0,0,0,0,0,0,0,0,0,0,0,0,0,0,0,0,0,0,0,0,0,0,0,0,0,0,0,0,0,0,0,0,0,0,0,0,0,0,0,0,0,0,0,0,0,0,0,0,0,0,0,0,0,0.1169,0.1169,0,0.1233,0.1234,0.1235,0.1247,0.1247,0.1246,0.1245,0.1362,0.1366,0.137,0,0,0,0,0,0,0,0,0,0,0,0,0,0.1131,0.1132,0.1168,0.1169,0.117,0.1233,0.1234,0.1235,0.1248,0.1247,0.1246,0.1245,0.1361,0.1365,0.137,0,0,0,0,0,0,0,0,0,0,0,0,0,0.1169,0.1132,0.1168,0.1181,0.1183,0.1233,0.1234,0.1235,0.1248,0.1247,0.1245,0.1244,0.1359,0.1365,0.1371,0.1429,0,0,0.1388,0.1391,0,0,0,0,0,0,0,0,0.1167,0.1171,0.1179,0.118,0.1182,0.1228,0.1264,0.1302,0.1248,0.1226,0.1245,0.1244,0.1321,0.133,0.1348,0.1435,0.144,0.1389,0.1392,0.1395,0.1396,0,0,0,0,0,0,0,0.1164,0.1169,0.1197,0.1179,0.1182,0.1209,0.1213,0.1271,0.1283,0.1228,0.1228,0.1231,0.1323,0.1343,0.1351,0.1441,0.1389,0.1394,0.1397,0.14,0.1678,0.1682,0,0,0,0,0,0,0.1148,0.1166,0.1195,0.1199,0.1168,0.121,0.1215,0.1217,0.1281,0.1288,0.1232,0.1232,0.1333,0.1344,0.1355,0.1501,0.1395,0.14,0.1403,0.1674,0.1679,0.1683,0,0,0,0,0,0,0.1147,0.115,0.1192,0.1181,0.1188,0.1211,0.1215,0.1219,0.1248,0.1283,0.1292,0.1257,0.1333,0.1347,0.1445,0.1503,0.1403,0.1408,0.167,0.1676,0.1681,0.1747,0,0,0,0,0,0,0.1146,0.1149,0.1154,0.118,0.1188,0.124,0.1216,0.1221,0.1249,0.125,0.1308,0.1316,0.1333,0.1437,0.1451,0.1509,0.1412,0.1665,0.1672,0.1679,0.1739,0.1754,0.1767,0,0,0,0,0,0.1144,0.1155,0.1153,0.1157,0.119,0.1242,0.1251,0.1264,0.1252,0.1283,0.1332,0.1315,0.1493,0.1445,0.146,0.1521,0.1661,0.167,0.1679,0.1733,0.1751,0.1766,0,0,0,0,0,0,0.1146,0.1158,0.1156,0.1171,0.121,0.1243,0.1266,0.1276,0.1337,0.1342,0.1367,0.1382,0.1492,0.1507,0.1452,0.1628,0.1575,0.1587,0.1611,0.1628,0.1641,0.1612,0.1417,0,0,0,0,0,0.1146,0.1154,0.1182,0.1198,0.1215,0.1244,0.1266,0.1285,0.1334,0.1357,0.1406,0.1468,0.1542,0.1581,0.1649,0.1743,0.1737,0.1796,0.1809,0.182,0.1811,0.1866,0.1882,0.1712,0.1712,0.1712,0,0,0.1149,0.1158,0.1162,0.1199,0.1225,0.1281,0.1257,0.1304,0.1363,0.1365,0.1472,0.1521,0.1581,0.1691,0.1741,0.1708,0.1871,0.1831,0.184,0.1825,0.1877,0.1893,0.1907,0.1718,0.1717,0.1716,0,0,0.1174,0.1172,0.1196,0.1236,0.1283,0.1312,0.133,0.1389,0.1425,0.1532,0.1553,0.1634,0.175,0.1801,0.1839,0.1971,0.1944,0.2002,0.2042,0.2096,0.2109,0.212,0.2139,0.2151,0.2003,0.2004,0.2004,0,0.1181,0.1213,0.1217,0.1267,0.1304,0.133,0.1391,0.1444,0.1536,0.1576,0.158,0.1754,0.1801,0.1918,0.1966,0.1998,0.2009,0.1967,0.2109,0.212,0.213,0.2146,0.2159,0.2008,0.2007,0.2007,0.2006,0,0.1237,0.127,0.1294,0.136,0.1407,0.1464,0.1529,0.1595,0.164,0.1689,0.1816,0.1889,0.1979,0.2022,0.2035,0.2146,0.2124,0.2118,0.2051,0.215,0.2162,0.2174,0.2014,0.2012,0.2011,0.201,0,0,0.1246,0.1315,0.1329,0.1366,0.1459,0.1502,0.1607,0.17,0.1755,0.1858,0.1939,0.2073,0.2088,0.2132,0.2165,0.2211,0.23,0.2196,0.2197,0.2185,0.2401,0.2278,0.2278,0.2317,0.2319,0.2321,0.2379,0,0.1297,0.1374,0.1412,0.1513,0.1561,0.1621,0.171,0.1797,0.187,0.1962,0.2033,0.2133,0.2138,0.2185,0.2239,0.2289,0.2335,0.2283,0.2331,0.2332,0.2187,0.2289,0.2158,0.2189,0.239,0.2392,0.2394,0,0.1357,0.1394,0.1478,0.1568,0.1596,0.1668,0.1783,0.1871,0.1991,0.2044,0.2136,0.2188,0.2294,0.2275,0.2393,0.236,0.2388,0.241,0.2413,0.2276,0.2231,0.2127,0.2202,0.2413,0.2411,0.241,0.2408,0,0.1354,0.1453,0.1507,0.1543,0.1649,0.1704,0.1777,0.1894,0.1964,0.2095,0.2149,0.2266,0.2336,0.2397,0.2444,0.2435,0.2539,0.2532,0.2445,0.2436,0.2319,0.2294,0.2611,0.2611,0.261,0.261,0.261,0,0.1397,0.1448,0.1503,0.1537,0.1612,0.1698,0.1794,0.188,0.1998,0.2078,0.2184,0.2258,0.2372,0.244,0.2469,0.2482,0.2566,0.246,0.2452,0.2339,0.2316,0.25,0.2487,0.2612,0.2612,0.2612,0.2611,0,0.1395,0.1436,0.1491,0.1576,0.1609,0.1663,0.1789,0.1852,0.1973,0.2079,0.2125,0.2277,0.2355,0.2424,0.2521,0.2503,0.2531,0.2511,0.2346,0.2316,0.2385,0.2375,0.2434,0.2431,0.2428,0.2425,0.2423,0,0.1397,0.1419,0.1485,0.1508,0.1549,0.1632,0.169,0.1826,0.1893,0.2077,0.2122,0.2243,0.2291,0.2368,0.2379,0.2392,0.2456,0.2262,0.2216,0.2385,0.2373,0.2367,0.2362,0.2103,0.2099,0.2095,0.2092,0,0.1377,0.139,0.142,0.1464,0.1515,0.158,0.1677,0.1722,0.1881,0.195,0.2056,0.2108,0.2196,0.2163,0.2174,0.2162,0.2245,0.218,0.2444,0.2143,0.2071,0.2058,0.2065,0.2058,0.2062,0.2064,0.2066,0.2067,0.1332,0.1339,0.1364,0.1414,0.1469,0.1527,0.1561,0.1644,0.1717,0.1805,0.1908,0.1932,0.2003,0.1938,0.19,0.189,0.2024,0.1973,0.1987,0.2005,0.1931,0.1855,0.1787,0.1789,0.179,0.1792,0.1793,0,0.1258,0.1285,0.1318,0.1368,0.1407,0.147,0.1547,0.1545,0.1578,0.1656,0.1692,0.1586,0.159,0.1658,0.1607,0.1605,0.1609,0.1539,0.1569,0.1603,0.1634,0.1543,0.1295,0.1294,0.1292,0.129,0,0,0.1214,0.1219,0.1252,0.1294,0.1344,0.1374,0.1404,0.1392,0.1429,0.1364,0.1371,0.1485,0.161,0.1426,0.1421,0.1362,0.1461,0.1303,0.1711,0.178,0.1808,0.19,0.18,0,0,0,0,0]},{"header":{"parameterUnit":"m.s-1","parameterCategory":2,"la1":30.2991,"la2":30.254,"lo1":-89.0895,"lo2":-89.0444,"dy":0.0017,"dx":0.0017,"nx":28,"ny":28,"refTime":"2025-07-06T09:00:00:Z","depth":"2","parameterNumber":3,"parameterNumberName":"V-component_of_CURRENTS"},"data":[0,0,0,0,0,0,0,0,0,0,0,0,0,0,0,0,0,0,0,0,0,0,0,0,0,0,0,0,0,0,0,0,0,0,0,0,0,0,0,0,0,0,0,0,0,0,0,0,0,0,0,0,0,0,0,0,0,0,-0.0637,-0.0637,0,-0.0592,-0.0592,-0.0591,-0.0565,-0.0566,-0.0566,-0.0566,-0.0514,-0.0512,-0.0511,0,0,0,0,0,0,0,0,0,0,0,0,0,-0.0601,-0.0602,-0.0638,-0.0637,-0.0637,-0.0592,-0.0592,-0.0591,-0.0565,-0.0566,-0.0566,-0.0566,-0.0514,-0.0513,-0.0511,0,0,0,0,0,0,0,0,0,0,0,0,0,-0.0591,-0.0603,-0.0638,-0.062,-0.0619,-0.0593,-0.0592,-0.0591,-0.0565,-0.0566,-0.0566,-0.0566,-0.0515,-0.0513,-0.0511,-0.0493,0,0,-0.0504,-0.0503,0,0,0,0,0,0,0,0,-0.0591,-0.0592,-0.0623,-0.0622,-0.062,-0.0587,-0.056,-0.0558,-0.0565,-0.0583,-0.0566,-0.0566,-0.0539,-0.0535,-0.0523,-0.049,-0.0488,-0.0503,-0.0502,-0.0501,-0.0501,0,0,0,0,0,0,0,-0.0592,-0.0593,-0.0617,-0.0623,-0.0621,-0.0581,-0.058,-0.0559,-0.0559,-0.0582,-0.058,-0.0579,-0.0538,-0.0525,-0.0521,-0.0487,-0.0504,-0.0502,-0.05,-0.0499,-0.0422,-0.0421,0,0,0,0,0,0,-0.0608,-0.0594,-0.0619,-0.0616,-0.0608,-0.0582,-0.0581,-0.0595,-0.0559,-0.0554,-0.0579,-0.0578,-0.0529,-0.0524,-0.0519,-0.046,-0.0501,-0.0499,-0.0498,-0.0422,-0.0422,-0.0421,0,0,0,0,0,0,-0.0607,-0.0611,-0.0621,-0.0605,-0.0604,-0.0583,-0.0599,-0.0594,-0.0575,-0.0557,-0.0552,-0.0563,-0.0529,-0.0523,-0.0488,-0.0459,-0.0498,-0.0496,-0.0423,-0.0422,-0.0421,-0.0364,0,0,0,0,0,0,-0.0607,-0.0612,-0.0619,-0.0607,-0.0605,-0.0593,-0.0599,-0.0593,-0.0575,-0.0573,-0.0542,-0.0538,-0.0528,-0.0491,-0.0486,-0.0457,-0.0494,-0.0424,-0.0423,-0.0422,-0.0366,-0.0361,-0.0356,0,0,0,0,0,-0.0606,-0.0612,-0.062,-0.0622,-0.062,-0.0592,-0.0586,-0.0571,-0.0574,-0.0555,-0.0538,-0.0539,-0.0479,-0.0488,-0.0482,-0.0452,-0.0425,-0.0423,-0.0422,-0.0369,-0.0362,-0.0356,0,0,0,0,0,0,-0.0601,-0.0611,-0.0618,-0.0629,-0.0609,-0.0589,-0.0571,-0.0566,-0.0537,-0.0535,-0.0523,-0.0517,-0.0479,-0.0477,-0.0487,-0.0429,-0.0455,-0.0452,-0.0417,-0.041,-0.0405,-0.0407,-0.0492,0,0,0,0,0,-0.0606,-0.0611,-0.0609,-0.0612,-0.0605,-0.0588,-0.0575,-0.0564,-0.0543,-0.053,-0.0508,-0.049,-0.0468,-0.0449,-0.0431,-0.0392,-0.0425,-0.0373,-0.0367,-0.0363,-0.0362,-0.0401,-0.0399,-0.0416,-0.0416,-0.0416,0,0,-0.0603,-0.0609,-0.0611,-0.061,-0.0595,-0.0565,-0.0579,-0.0553,-0.052,-0.0529,-0.0474,-0.047,-0.0456,-0.0413,-0.0396,-0.0405,-0.0373,-0.0361,-0.0357,-0.0358,-0.0399,-0.0398,-0.0396,-0.0414,-0.0415,-0.0415,0,0,-0.058,-0.0606,-0.0591,-0.0576,-0.0557,-0.0544,-0.0536,-0.051,-0.0491,-0.0446,-0.0448,-0.043,-0.0383,-0.0371,-0.036,-0.0318,-0.0349,-0.0309,-0.0272,-0.031,-0.0309,-0.0309,-0.0341,-0.0344,-0.03,-0.03,-0.03,0,-0.057,-0.0564,-0.0577,-0.0552,-0.0533,-0.0533,-0.0496,-0.0473,-0.0435,-0.0419,-0.042,-0.0375,-0.0364,-0.0326,-0.0306,-0.0304,-0.0333,-0.0294,-0.0303,-0.0304,-0.0305,-0.0338,-0.0343,-0.0297,-0.0297,-0.0297,-0.0298,0,-0.053,-0.0521,-0.0507,-0.0481,-0.046,-0.043,-0.0409,-0.0379,-0.0363,-0.0348,-0.0311,-0.0303,-0.0279,-0.0271,-0.0267,-0.0257,-0.0278,-0.0298,-0.032,-0.03,-0.0336,-0.0342,-0.0292,-0.0294,-0.0294,-0.0295,0,0,-0.0508,-0.0484,-0.0475,-0.0449,-0.0422,-0.0394,-0.0347,-0.0306,-0.0272,-0.0254,-0.0217,-0.0191,-0.0206,-0.0196,-0.0201,-0.0225,-0.0248,-0.0253,-0.0257,-0.0286,-0.033,-0.0353,-0.0362,-0.0272,-0.0272,-0.0273,-0.0351,0,-0.0462,-0.041,-0.0408,-0.034,-0.0308,-0.0299,-0.0248,-0.0216,-0.0197,-0.0162,-0.0176,-0.0142,-0.0171,-0.0152,-0.0184,-0.0228,-0.0261,-0.0225,-0.0345,-0.0348,-0.0373,-0.0369,-0.0329,-0.0396,-0.0357,-0.0358,-0.0358,0,-0.0413,-0.0385,-0.0323,-0.0268,-0.0251,-0.0209,-0.0145,-0.0101,-0.0074,-0.006,-0.006,-0.0073,-0.0084,-0.012,-0.0207,-0.0183,-0.0251,-0.03,-0.0305,-0.0352,-0.0382,-0.0412,-0.0408,-0.0368,-0.0367,-0.0367,-0.0366,0,-0.0379,-0.0319,-0.027,-0.0252,-0.0192,-0.0153,-0.0112,-0.007,-0.0018,-0.0001,0.0027,-0.0013,-0.0008,-0.011,-0.0204,-0.0206,-0.0321,-0.0341,-0.0432,-0.0435,-0.0438,-0.0439,-0.0422,-0.0422,-0.0422,-0.0422,-0.0422,0,-0.0335,-0.029,-0.0247,-0.0218,-0.013,-0.0111,-0.002,0.0012,0.0062,0.0123,0.0081,0.0109,-0.0006,-0.0078,-0.0193,-0.0327,-0.0319,-0.0429,-0.0458,-0.0415,-0.0414,-0.042,-0.0418,-0.0425,-0.0424,-0.0424,-0.0423,0,-0.0306,-0.0284,-0.0214,-0.0146,-0.0113,-0.0049,0.0057,0.0122,0.015,0.0224,0.0237,0.0209,0.0104,-0.0033,-0.0191,-0.0292,-0.0431,-0.0485,-0.0423,-0.0444,-0.0524,-0.0519,-0.0595,-0.0597,-0.0598,-0.0599,-0.06,0,-0.0293,-0.026,-0.0161,-0.0095,-0.0057,0.0038,0.0118,0.0172,0.0239,0.0285,0.0326,0.0256,0.0207,-0.0037,-0.0228,-0.0444,-0.0469,-0.0539,-0.0541,-0.0522,-0.0543,-0.0536,-0.0529,-0.052,-0.052,-0.052,-0.052,0,-0.026,-0.0224,-0.0157,-0.0023,0.007,0.0175,0.0279,0.034,0.0399,0.0431,0.0449,0.0404,0.0195,-0.0,-0.0273,-0.0414,-0.0504,-0.055,-0.0551,-0.0481,-0.0457,-0.0475,-0.047,-0.0521,-0.0521,-0.0521,-0.0521,-0.0521,-0.0223,-0.016,-0.0059,0.0073,0.0188,0.0312,0.0398,0.0474,0.0554,0.0602,0.0537,0.0482,0.0264,-0.0075,-0.0301,-0.0515,-0.0532,-0.0599,-0.0596,-0.0593,-0.0569,-0.0549,-0.0626,-0.0627,-0.0627,-0.0627,-0.0628,0,-0.0164,-0.0079,0.0039,0.0204,0.0339,0.0385,0.052,0.0576,0.0654,0.0666,0.0648,0.0445,0.0224,-0.0014,-0.0323,-0.0536,-0.0533,-0.0599,-0.0539,-0.0538,-0.0537,-0.0508,-0.055,-0.055,-0.055,-0.055,0,0,-0.0121,0.0004,0.0072,0.0309,0.0433,0.0597,0.0673,0.0721,0.0754,0.0732,0.0707,0.0607,0.0316,0.011,-0.0183,-0.0349,-0.0389,-0.0385,-0.043,-0.0325,-0.032,-0.0527,-0.048,0,0,0,0,0]}],[{"header":{"parameterUnit":"m.s-1","parameterCategory":2,"la1":30.2991,"la2":30.254,"lo1":-89.0895,"lo2":-89.0444,"dy":0.0017,"dx":0.0017,"nx":28,"ny":28,"refTime":"2025-07-06T09:00:00:Z","depth":"4","parameterNumber":2,"parameterNumberName":"U-component_of_CURRENTS"},"data":[0,0,0,0,0,0,0,0,0,0,0,0,0,0,0,0,0,0,0,0,0,0,0,0,0,0,0,0,0,0,0,0,0,0,0,0,0,0,0,0,0,0,0,0,0,0,0,0,0,0,0,0,0,0,0,0,0,0,0.0657,0.0657,0,0.066,0.066,0.066,0.0683,0.0683,0.0684,0.0684,0.0726,0.0726,0.0727,0,0,0,0,0,0,0,0,0,0,0,0,0,0.0671,0.0671,0.0657,0.0657,0.0657,0.066,0.066,0.066,0.0683,0.0683,0.0684,0.0685,0.0725,0.0726,0.0727,0,0,0,0,0,0,0,0,0,0,0,0,0,0.0669,0.0671,0.0657,0.0669,0.067,0.066,0.066,0.066,0.0682,0.0683,0.0684,0.0685,0.0725,0.0726,0.0727,0.0716,0,0,0.073,0.073,0,0,0,0,0,0,0,0,0.0669,0.0668,0.0667,0.0668,0.0669,0.0671,0.068,0.068,0.0682,0.0678,0.0684,0.0685,0.071,0.0712,0.0711,0.0718,0.072,0.073,0.073,0.0731,0.0731,0,0,0,0,0,0,0,0.0669,0.0668,0.0659,0.0667,0.0668,0.0673,0.0674,0.068,0.0691,0.0678,0.068,0.0679,0.0711,0.071,0.0712,0.072,0.073,0.073,0.0731,0.0731,0.0807,0.0808,0,0,0,0,0,0,0.0667,0.0668,0.0659,0.0659,0.0671,0.0672,0.0673,0.067,0.069,0.0693,0.0679,0.0681,0.0708,0.0711,0.0714,0.0797,0.0731,0.0731,0.0732,0.0805,0.0807,0.0809,0,0,0,0,0,0,0.0667,0.0666,0.0659,0.0664,0.0663,0.0671,0.0668,0.067,0.0691,0.0689,0.0694,0.0701,0.0709,0.0713,0.0748,0.0795,0.0732,0.0733,0.0804,0.0806,0.0808,0.0903,0,0,0,0,0,0,0.0668,0.0666,0.0677,0.0663,0.0663,0.0673,0.0667,0.0669,0.0688,0.0691,0.0709,0.0712,0.071,0.0747,0.0749,0.0795,0.0733,0.0802,0.0805,0.0807,0.0898,0.0908,0.0916,0,0,0,0,0,0.0668,0.0673,0.0677,0.0677,0.0672,0.0673,0.0674,0.0682,0.0688,0.0704,0.0722,0.0713,0.0766,0.0749,0.0751,0.0799,0.08,0.0804,0.0807,0.0893,0.0906,0.0916,0,0,0,0,0,0,0.0684,0.0676,0.068,0.0683,0.0689,0.0678,0.0694,0.0695,0.0718,0.0733,0.0729,0.0734,0.0785,0.0772,0.0753,0.0827,0.0783,0.0787,0.0848,0.0859,0.0869,0.0825,0.0734,0,0,0,0,0,0.0691,0.0694,0.069,0.0695,0.0703,0.0703,0.0709,0.0717,0.0727,0.0739,0.0755,0.0773,0.0795,0.0812,0.0826,0.0862,0.083,0.0893,0.0903,0.0911,0.0877,0.0871,0.0876,0.082,0.082,0.082,0,0,0.0697,0.0693,0.0696,0.0699,0.0707,0.0714,0.071,0.0731,0.0751,0.074,0.0789,0.0809,0.0811,0.086,0.0881,0.086,0.092,0.0915,0.0922,0.0882,0.0875,0.088,0.0885,0.0822,0.0822,0.0821,0,0,0.0702,0.0712,0.0719,0.0731,0.0748,0.0742,0.0754,0.0768,0.0798,0.0836,0.0843,0.0876,0.0915,0.0922,0.0929,0.099,0.097,0.102,0.1035,0.1033,0.1037,0.1039,0.1045,0.1047,0.1025,0.1026,0.1026,0,0.0714,0.0716,0.0723,0.0738,0.0755,0.0756,0.0777,0.0795,0.0824,0.0855,0.0867,0.092,0.0933,0.0968,0.0998,0.101,0.1009,0.0999,0.1044,0.1046,0.1047,0.1051,0.1052,0.1031,0.103,0.1029,0.1029,0,0.0718,0.0736,0.0745,0.0759,0.078,0.0799,0.0825,0.0857,0.0891,0.0911,0.0976,0.0991,0.1017,0.1044,0.104,0.1072,0.1071,0.1059,0.1013,0.1058,0.1061,0.106,0.1038,0.1036,0.1034,0.1033,0,0,0.0709,0.074,0.075,0.0767,0.0802,0.0813,0.086,0.0896,0.0926,0.0975,0.1018,0.1062,0.1078,0.1081,0.1097,0.1089,0.1122,0.1085,0.1083,0.1086,0.1132,0.1119,0.1117,0.1133,0.1133,0.1132,0.1144,0,0.0715,0.0742,0.0764,0.0797,0.0816,0.0851,0.089,0.0934,0.0976,0.1019,0.105,0.1097,0.1094,0.1126,0.1121,0.1122,0.112,0.112,0.1088,0.1086,0.1066,0.1115,0.1131,0.1144,0.1143,0.1143,0.1143,0,0.0717,0.0735,0.0774,0.0824,0.0841,0.0858,0.0922,0.0968,0.1027,0.107,0.1109,0.1135,0.1157,0.114,0.1139,0.115,0.1138,0.1123,0.1124,0.1061,0.1071,0.1079,0.1142,0.1142,0.1142,0.1142,0.1142,0,0.0697,0.0746,0.0775,0.0794,0.0845,0.0879,0.0916,0.0984,0.1038,0.1103,0.1139,0.1167,0.1197,0.1175,0.1174,0.1165,0.1155,0.1143,0.1111,0.1111,0.1075,0.1071,0.1112,0.1112,0.1112,0.1112,0.1112,0,0.0684,0.0709,0.0765,0.0776,0.0823,0.0883,0.0942,0.0985,0.1059,0.1114,0.1167,0.1195,0.1206,0.1216,0.1187,0.1161,0.1176,0.1103,0.1107,0.1122,0.1123,0.1077,0.1073,0.1112,0.1112,0.1112,0.1112,0,0.0646,0.0685,0.0715,0.0779,0.0808,0.0848,0.0946,0.0981,0.1067,0.1134,0.1163,0.123,0.1256,0.1257,0.1234,0.119,0.1156,0.1138,0.1171,0.1179,0.1107,0.1107,0.1093,0.1092,0.1092,0.1092,0.1091,0,0.0616,0.063,0.0707,0.0735,0.076,0.0832,0.0878,0.0973,0.1017,0.1143,0.1162,0.1233,0.1267,0.1226,0.1229,0.1192,0.1168,0.1145,0.1092,0.1096,0.1102,0.1103,0.1105,0.1091,0.1091,0.1091,0.109,0,0.0554,0.0592,0.0615,0.0684,0.0729,0.079,0.0863,0.089,0.1009,0.1085,0.1145,0.1172,0.1207,0.1203,0.1201,0.1161,0.1156,0.114,0.1139,0.1089,0.1093,0.11,0.1102,0.1089,0.1089,0.1089,0.1089,0,0.0503,0.0513,0.0562,0.0622,0.0684,0.0735,0.0782,0.0845,0.0909,0.1048,0.1062,0.1138,0.1202,0.1188,0.1176,0.1159,0.1124,0.1063,0.1065,0.1067,0.1053,0.1054,0.1035,0,0,0,0,0,0.045,0.0466,0.0504,0.0567,0.0631,0.068,0.0768,0.0819,0.0926,0.0947,0.1011,0.1046,0.1075,0.1106,0.1079,0.1145,0.1113,0.1108,0.104,0.1081,0.1083,0.1069,0,0,0,0,0,0,0.041,0.0436,0.0475,0.0518,0.0559,0.0625,0.0681,0.0753,0.0778,0.0887,0.0904,0.0987,0.1017,0.1078,0.106,0.1068,0.1005,0.1155,0.1153,0.108,0.1082,0.1083,0.1069,0,0,0,0,0]},{"header":{"parameterUnit":"m.s-1","parameterCategory":2,"la1":30.2991,"la2":30.254,"lo1":-89.0895,"lo2":-89.0444,"dy":0.0017,"dx":0.0017,"nx":28,"ny":28,"refTime":"2025-07-06T09:00:00:Z","depth":"4","parameterNumber":3,"parameterNumberName":"V-component_of_CURRENTS"},"data":[0,0,0,0,0,0,0,0,0,0,0,0,0,0,0,0,0,0,0,0,0,0,0,0,0,0,0,0,0,0,0,0,0,0,0,0,0,0,0,0,0,0,0,0,0,0,0,0,0,0,0,0,0,0,0,0,0,0,-0.0097,-0.0097,0,-0.0083,-0.0083,-0.0083,-0.0125,-0.0126,-0.0128,-0.0129,-0.0169,-0.017,-0.017,0,0,0,0,0,0,0,0,0,0,0,0,0,-0.0159,-0.0158,-0.0097,-0.0097,-0.0096,-0.0083,-0.0083,-0.0083,-0.0125,-0.0127,-0.0128,-0.0129,-0.0169,-0.017,-0.017,0,0,0,0,0,0,0,0,0,0,0,0,0,-0.014,-0.0158,-0.0097,-0.0114,-0.0115,-0.0083,-0.0083,-0.0083,-0.0125,-0.0127,-0.0128,-0.013,-0.0169,-0.017,-0.017,-0.0139,0,0,-0.017,-0.017,0,0,0,0,0,0,0,0,-0.0141,-0.0138,-0.0112,-0.0113,-0.0114,-0.0106,-0.012,-0.0104,-0.0125,-0.0124,-0.0129,-0.013,-0.015,-0.0152,-0.0149,-0.0141,-0.0143,-0.017,-0.017,-0.017,-0.017,0,0,0,0,0,0,0,-0.0142,-0.0139,-0.0094,-0.0111,-0.0112,-0.0121,-0.0121,-0.0117,-0.0131,-0.0124,-0.0126,-0.012,-0.0152,-0.0149,-0.015,-0.0143,-0.017,-0.017,-0.017,-0.0171,-0.0225,-0.0226,0,0,0,0,0,0,-0.0137,-0.014,-0.0095,-0.0094,-0.0129,-0.0119,-0.0118,-0.0109,-0.013,-0.0134,-0.0119,-0.0122,-0.0148,-0.015,-0.0152,-0.0219,-0.017,-0.0171,-0.0171,-0.0224,-0.0225,-0.0227,0,0,0,0,0,0,-0.0138,-0.0133,-0.0095,-0.0115,-0.0111,-0.0116,-0.0105,-0.0107,-0.0112,-0.0125,-0.0131,-0.0121,-0.0149,-0.0152,-0.0169,-0.0218,-0.0171,-0.0171,-0.0222,-0.0224,-0.0226,-0.0289,0,0,0,0,0,0,-0.014,-0.0133,-0.0131,-0.0114,-0.0109,-0.0082,-0.0103,-0.0106,-0.0104,-0.0108,-0.0129,-0.0134,-0.015,-0.0169,-0.0169,-0.0217,-0.0171,-0.022,-0.0223,-0.0225,-0.0285,-0.0293,-0.0299,0,0,0,0,0,-0.0142,-0.0123,-0.0131,-0.0126,-0.0104,-0.0082,-0.008,-0.0091,-0.0102,-0.0102,-0.0127,-0.0134,-0.0186,-0.0169,-0.0169,-0.0219,-0.0219,-0.0222,-0.0225,-0.0282,-0.0291,-0.0299,0,0,0,0,0,0,-0.0146,-0.0125,-0.0133,-0.011,-0.0102,-0.0088,-0.0082,-0.0087,-0.0102,-0.0112,-0.0132,-0.0138,-0.0182,-0.0177,-0.0157,-0.0242,-0.0211,-0.0214,-0.0254,-0.0263,-0.027,-0.0222,-0.0171,0,0,0,0,0,-0.0145,-0.0127,-0.0115,-0.0096,-0.0091,-0.0088,-0.0082,-0.0088,-0.0092,-0.01,-0.0121,-0.0151,-0.019,-0.0206,-0.0228,-0.0252,-0.0237,-0.029,-0.0297,-0.0303,-0.0265,-0.03,-0.0306,-0.0236,-0.0236,-0.0236,0,0,-0.014,-0.0125,-0.0116,-0.0096,-0.009,-0.0082,-0.0089,-0.0076,-0.0089,-0.0101,-0.0132,-0.0168,-0.02,-0.025,-0.027,-0.0255,-0.0319,-0.0307,-0.0312,-0.027,-0.0303,-0.031,-0.0316,-0.0239,-0.0238,-0.0238,0,0,-0.0112,-0.011,-0.0088,-0.0086,-0.0074,-0.0074,-0.007,-0.0068,-0.0092,-0.0113,-0.0152,-0.02,-0.0238,-0.0284,-0.031,-0.0356,-0.0355,-0.0386,-0.0385,-0.0422,-0.0427,-0.0431,-0.0438,-0.0442,-0.0392,-0.0392,-0.0392,0,-0.0112,-0.0085,-0.0079,-0.0065,-0.0066,-0.007,-0.0061,-0.0079,-0.0091,-0.0113,-0.0132,-0.0216,-0.0254,-0.032,-0.0357,-0.0373,-0.0378,-0.0356,-0.043,-0.0434,-0.0438,-0.0443,-0.0447,-0.0395,-0.0395,-0.0395,-0.0394,0,-0.0071,-0.0063,-0.0049,-0.004,-0.0041,-0.003,-0.0053,-0.007,-0.0102,-0.0127,-0.0195,-0.0249,-0.0294,-0.0346,-0.0367,-0.043,-0.0422,-0.0437,-0.0406,-0.0448,-0.0451,-0.0454,-0.04,-0.0399,-0.0398,-0.0397,0,0,-0.0047,-0.0024,-0.0026,-0.0024,-0.0032,-0.0022,-0.0053,-0.0077,-0.0094,-0.015,-0.0183,-0.0285,-0.031,-0.0337,-0.0391,-0.043,-0.0489,-0.0445,-0.0445,-0.0444,-0.055,-0.0528,-0.0529,-0.0529,-0.0529,-0.053,-0.0548,0,-0.0025,0.0007,0.0005,0.0013,0.0022,-0.0005,-0.0028,-0.006,-0.0102,-0.0138,-0.0216,-0.0266,-0.0312,-0.0347,-0.0398,-0.0463,-0.0496,-0.048,-0.0511,-0.0511,-0.0482,-0.0531,-0.0532,-0.055,-0.0551,-0.0552,-0.0552,0,-0.0004,0.0019,0.0037,0.0037,0.0037,0.004,0.0007,-0.0017,-0.0077,-0.0114,-0.0172,-0.0224,-0.03,-0.0329,-0.0434,-0.0425,-0.0477,-0.0521,-0.0524,-0.0468,-0.0493,-0.0496,-0.0557,-0.0556,-0.0556,-0.0556,-0.0555,0,0.0003,0.0027,0.0044,0.0043,0.0049,0.0046,0.0041,-0.0007,-0.0031,-0.0091,-0.011,-0.02,-0.0246,-0.0325,-0.0429,-0.0436,-0.0525,-0.055,-0.0568,-0.0566,-0.055,-0.0545,-0.0599,-0.0599,-0.0599,-0.0599,-0.0599,0,0.0013,0.0022,0.0057,0.0066,0.0088,0.0072,0.0071,0.0048,0.0012,-0.0009,-0.0089,-0.0119,-0.0249,-0.0325,-0.0409,-0.0493,-0.0513,-0.0551,-0.0571,-0.0579,-0.0577,-0.0553,-0.0547,-0.06,-0.06,-0.06,-0.06,0,0.0008,0.0025,0.0052,0.0081,0.0092,0.0104,0.0112,0.0105,0.007,0.0046,0.0029,-0.0067,-0.0163,-0.0279,-0.0408,-0.0463,-0.0549,-0.0571,-0.0548,-0.0569,-0.0564,-0.0561,-0.0579,-0.0579,-0.0578,-0.0578,-0.0577,0,0.0009,0.0026,0.0074,0.0096,0.0116,0.0138,0.0148,0.0132,0.0125,0.0078,0.0068,-0.0023,-0.0096,-0.024,-0.0372,-0.0509,-0.0534,-0.0563,-0.0576,-0.0544,-0.0563,-0.0561,-0.0559,-0.0577,-0.0576,-0.0576,-0.0576,0,0.0025,0.0041,0.0078,0.0121,0.015,0.0175,0.0195,0.0201,0.0173,0.0149,0.0109,0.0022,-0.008,-0.0217,-0.0328,-0.0432,-0.0539,-0.0558,-0.056,-0.0573,-0.0541,-0.056,-0.0559,-0.0574,-0.0575,-0.0575,-0.0575,0,0.0046,0.007,0.0116,0.015,0.0182,0.0202,0.0214,0.022,0.0214,0.0173,0.0162,0.0046,-0.0029,-0.0176,-0.0281,-0.038,-0.0404,-0.0427,-0.0436,-0.0439,-0.0403,-0.0343,-0.0322,0,0,0,0,0,0.0072,0.0101,0.0138,0.0178,0.0202,0.0216,0.0236,0.0239,0.0228,0.0215,0.0192,0.0101,-0.0051,-0.0127,-0.0218,-0.0285,-0.0434,-0.0395,-0.0467,-0.0565,-0.0567,-0.0547,0,0,0,0,0,0,0.0097,0.014,0.0147,0.0188,0.0209,0.0235,0.0248,0.0244,0.0238,0.0218,0.0138,0.0094,-0.0061,0.0005,-0.0215,-0.0249,-0.0301,-0.0474,-0.0475,-0.0563,-0.0565,-0.0567,-0.0548,0,0,0,0,0]}]]